This is the latest recevied weather packets stored in our database for station/object WX7FGZ-5. If no packets are shown the sender has not sent any weather packets the latest 10 day(s).
| Time | Temp. | Humidity | Pressure | Rain* | Wind** | Luminosity | Snow |
|---|---|---|---|---|---|---|---|
| 1777520210 | 10.56° C | 23% | 1021.7 hPa | 0 mm | - | 0 W/m² | - |
| 1777519912 | 11.11° C | 23% | 1021.7 hPa | 0 mm | - | 0 W/m² | - |
| 1777519314 | 11.11° C | 22% | 1021.3 hPa | 0 mm | - | 0 W/m² | - |
| 1777518709 | 11.67° C | 22% | 1021.2 hPa | 0 mm | - | 0 W/m² | - |
| 1777517903 | 12.22° C | 21% | 1021.2 hPa | 0 mm | - | 0 W/m² | - |
| 1777517808 | 12.22° C | 22% | 1021.2 hPa | 0 mm | - | 0 W/m² | - |
| 1777517508 | 12.22° C | 21% | 1021.2 hPa | 0 mm | - | 0 W/m² | - |
| 1777516909 | 12.78° C | 21% | 1021.2 hPa | 0 mm | - | 0 W/m² | - |
| 1777516608 | 12.78° C | 21% | 1021.1 hPa | 0 mm | - | 0 W/m² | - |
| 1777516346 | 13.33° C | 20% | 1020.8 hPa | 0 mm | - | 0 W/m² | - |
| 1777516081 | 13.33° C | 19% | 1020.7 hPa | 0 mm | - | 7 W/m² | - |
| 1777516008 | 13.33° C | 20% | 1020.8 hPa | 0 mm | - | 0 W/m² | - |
| 1777515709 | 13.33° C | 19% | 1020.7 hPa | 0 mm | - | 7 W/m² | - |
| 1777515124 | 13.89° C | 19% | 1020.7 hPa | 0 mm | - | 14 W/m² | - |
| 1777514209 | 14.44° C | 18% | 1020.6 hPa | 0 mm | - | 39 W/m² | - |
| 1777513917 | 14.44° C | 18% | 1020.5 hPa | 0 mm | - | 49 W/m² | - |
| 1777513584 | 15° C | 18% | 1020.5 hPa | 0 mm | - | 79 W/m² | - |
| 1777513308 | 15° C | 18% | 1020.5 hPa | 0 mm | - | 79 W/m² | - |
| 1777512429 | 15° C | 17% | 1020.5 hPa | 0 mm | - | 72 W/m² | - |
| 1777512122 | 15° C | 17% | 1020.5 hPa | 0 mm | - | 72 W/m² | - |
| 1777511809 | 15° C | 16% | 1020.6 hPa | 0 mm | - | 105 W/m² | - |
| 1777511508 | 15° C | 16% | 1020.7 hPa | 0 mm | - | 84 W/m² | - |
| 1777511216 | 15.56° C | 16% | 1020.6 hPa | 0 mm | - | 81 W/m² | - |
| 1777510664 | 15.56° C | 16% | 1020.6 hPa | 0 mm | - | 113 W/m² | - |
| 1777510313 | 15.56° C | 16% | 1020.6 hPa | 0 mm | - | 113 W/m² | - |
* Rain latest hour (hover to see other rain measurements)
** Current wind speed in m/s (hover to see current wind gust speed)